SCP
3 4 4 1 1 1 0 0 0 0 0 0 0 0 0 0 0 0 0 0 0 0
2 2 2 1 1 0 0 0 0 0 0 0 0 0 0 0 0 0 0 0 0 0
2 1 1 0 0 0 0 0 0 0 0 0 0 0 0 0 0 0 0 0 0 0
1 0 0 0 0 0 0 0 0 0 0 0 0 0 0 0 0 0 0 0 0 0
0 0 0 0 0 0 0 0 0 0 0 0 0 0 0 0 0 0 0 0 0 0
0 0 0 0 0 0 0 0 0 0 0 0 0 0 0 0 0 0 0 0 0 0
0 0 0 0 0 0 0 0 0 0 0 0 0 0 0 0 0 0 0 0 0 0
0 0 0 0 0 0 0 0 0 0 0 0 0 0 0 0 0 0 0 0 0 0
0 0 -0 0 0 0 0 0 0 0 0 0 0 0 0 0 0 0 0 0 0 0
0 -0 0 0 -0 -0 0 0 0 0 0 0 0 0 0 0 0 0 0 0 0 0
-0 -0 -0 -0 -0 0 0 0 0 0 0 0 0 0 0 0 0 0 0 0 0 0
-0 -0 -0 -0 -0 0 0 0 0 0 0 0 0 0 0 0 0 0 0 0 0 0
-0 -0 -0 -0 0 0 0 0 0 0 0 0 0 0 0 0 0 0 0 0 0 0
-0 -0 -0 0 0 0 0 0 0 0 0 0 0 0 0 0 0 0 0 0 0 0
Wind_Speed_500mb
81 76 54 48 46 39 40 34 28 22 20 19 10 8 11 14 17 22 23 28 28 19
69 60 60 62 50 47 40 36 30 27 17 12 8 9 11 14 18 20 18 17 28 26
72 69 67 61 46 46 42 35 34 20 14 7 7 8 11 13 19 21 23 25 25 28
77 65 52 55 51 46 39 36 28 17 10 8 10 14 17 19 17 20 22 21 24 26
76 61 60 57 51 44 44 36 26 18 15 16 19 18 19 20 21 22 23 25 25 32
68 68 62 57 54 50 43 34 27 23 23 23 24 24 24 21 21 21 20 26 29 31
71 67 65 64 56 48 40 33 30 26 19 15 15 17 19 23 24 23 26 26 23 32
75 71 68 60 53 46 37 31 26 22 23 24 20 21 19 22 21 21 22 16 20 27
79 74 64 58 52 44 40 33 25 26 28 26 27 26 23 19 21 19 20 24 25 20
74 69 60 55 48 42 37 30 31 35 30 27 25 22 20 18 22 20 26 29 35 46
71 64 56 50 47 44 39 33 33 33 28 22 19 18 20 24 23 20 20 28 37 46
61 58 54 50 45 40 40 36 34 30 25 22 20 17 15 14 8 18 23 31 39 43
62 58 55 50 45 40 38 37 33 30 24 20 20 18 19 21 23 20 20 28 36 43
61 57 54 55 49 41 38 35 32 28 25 22 21 20 22 25 26 24 23 27 44 47
Wind_Direction_500mb
176 189 174 169 181 166 161 158 149 133 122 111 105 60 3 353 344 349 356 356 357 7
179 162 160 179 174 159 158 145 138 130 125 108 68 17 3 355 356 360 14 351 1 8
165 166 170 173 158 157 141 136 142 133 119 87 56 35 15 5 21 20 18 18 11 9
159 163 168 170 155 141 134 137 137 132 108 92 74 54 54 31 32 26 25 29 21 10
157 160 173 159 142 136 134 133 131 120 102 79 64 64 50 45 35 33 37 31 7 17
158 165 159 143 136 134 132 127 119 104 93 80 70 58 56 56 56 31 28 25 22 10
155 150 145 135 132 128 123 119 114 116 111 103 95 89 84 48 45 42 38 31 28 347
146 138 130 127 127 123 119 114 111 104 99 94 92 85 82 72 52 39 38 8 33 0
137 131 125 127 123 120 118 116 116 104 100 96 83 71 59 52 57 24 23 7 24 11
127 123 125 124 123 121 119 119 103 101 98 88 78 66 55 51 54 15 12 353 356 353
122 123 124 124 118 115 112 106 103 102 96 86 75 64 60 57 26 1 16 346 339 343
125 123 120 116 115 114 114 111 109 102 94 76 69 54 41 24 19 8 17 345 340 345
124 122 117 115 112 110 108 106 101 92 77 67 53 36 20 7 7 15 39 358 344 352
122 120 117 116 117 120 112 103 89 80 72 57 44 29 17 8 5 13 20 1 1 9
Wind_Speed_850mb
81 76 54 48 46 39 40 34 28 22 20 19 10 8 11 14 17 22 23 28 28 19
69 60 60 62 50 47 40 36 30 27 17 12 8 9 11 14 18 20 18 17 28 26
72 69 67 61 46 46 42 35 34 20 14 7 7 8 11 13 19 21 23 25 25 28
77 65 52 55 51 46 39 36 28 17 10 8 10 14 17 19 17 20 22 21 24 26
76 61 60 57 51 44 44 36 26 18 15 16 19 18 19 20 21 22 23 25 25 32
68 68 62 57 54 50 43 34 27 23 23 23 24 24 24 21 21 21 20 26 29 31
71 67 65 64 56 48 40 33 30 26 19 15 15 17 19 23 24 23 26 26 23 32
75 71 68 60 53 46 37 31 26 22 23 24 20 21 19 22 21 21 22 16 20 27
79 74 64 58 52 44 40 33 25 26 28 26 27 26 23 19 21 19 20 24 25 20
74 69 60 55 48 42 37 30 31 35 30 27 25 22 20 18 22 20 26 29 35 46
71 64 56 50 47 44 39 33 33 33 28 22 19 18 20 24 23 20 20 28 37 46
61 58 54 50 45 40 40 36 34 30 25 22 20 17 15 14 8 18 23 31 39 43
62 58 55 50 45 40 38 37 33 30 24 20 20 18 19 21 23 20 20 28 36 43
61 57 54 55 49 41 38 35 32 28 25 22 21 20 22 25 26 24 23 27 44 47
Wind_Direction_850mb
176 189 174 169 181 166 161 158 149 133 122 111 105 60 3 353 344 349 356 356 357 7
179 162 160 179 174 159 158 145 138 130 125 108 68 17 3 355 356 360 14 351 1 8
165 166 170 173 158 157 141 136 142 133 119 87 56 35 15 5 21 20 18 18 11 9
159 163 168 170 155 141 134 137 137 132 108 92 74 54 54 31 32 26 25 29 21 10
157 160 173 159 142 136 134 133 131 120 102 79 64 64 50 45 35 33 37 31 7 17
158 165 159 143 136 134 132 127 119 104 93 80 70 58 56 56 56 31 28 25 22 10
155 150 145 135 132 128 123 119 114 116 111 103 95 89 84 48 45 42 38 31 28 347
146 138 130 127 127 123 119 114 111 104 99 94 92 85 82 72 52 39 38 8 33 0
137 131 125 127 123 120 118 116 116 104 100 96 83 71 59 52 57 24 23 7 24 11
127 123 125 124 123 121 119 119 103 101 98 88 78 66 55 51 54 15 12 353 356 353
122 123 124 124 118 115 112 106 103 102 96 86 75 64 60 57 26 1 16 346 339 343
125 123 120 116 115 114 114 111 109 102 94 76 69 54 41 24 19 8 17 345 340 345
124 122 117 115 112 110 108 106 101 92 77 67 53 36 20 7 7 15 39 358 344 352
122 120 117 116 117 120 112 103 89 80 72 57 44 29 17 8 5 13 20 1 1 9